Weather History for KTQE - October, 2011

Change the Weather History Date:

Thursday, October 27, 2011

  Actual Average Record
Temperature  
Mean Temperature 44 °F -  
Max Temperature 57 °F 62 °F 87 °F (1999)
Min Temperature 30 °F 37 °F 18 °F (1997)
Degree Days  
Heating Degree Days 22    
Moisture  
Dew Point 26 °F    
Average Humidity 55    
Maximum Humidity 85    
Minimum Humidity 25    
Precipitation  
Precipitation 0.00 in - - ()
Sea Level Pressure  
Sea Level Pressure 30.13 in    
Wind  
Wind Speed 6 mph (West)    
Max Wind Speed 15 mph    
Max Gust Speed 20 mph    
Visibility 9 miles    
Events      
Averages and records for this station are not official NWS values.
T = Trace of Precipitation, MM = Missing Value Source: NWS Daily Summary

Daily Weather History Graph

Daily Weather History Graph

Search for Another Location

Airport or City:

Trip Planner

Search our weather history database for the weather conditions in past years. The results will help you decide how hot, cold, wet, or windy it might be!

Date:

Astronomy

Oct. 27, 2011 Rise Set
Actual Time 7:50 AM CDT 6:25 PM CDT
Civil Twilight 7:22 AM CDT 6:54 PM CDT
Nautical Twilight 6:49 AM CDT 7:27 PM CDT
Astronomical Twilight 6:17 AM CDT 7:59 PM CDT
Moon 8:56 AM CDT (10/27) 6:53 PM CDT (10/27)
Length of Visible Light 11h 32m
Length of Day
10h 35m
New Moon, 1% of the Moon is Illuminated
Oct 27
New Moon
Nov 2
First Quarter
Nov 10
Full
Nov 18
Last Quarter
Nov 25
New

Hourly Weather History & Observations

Time (CDT) Temp. Windchill Dew Point Humidity Pressure Visibility Wind Dir Wind Speed Gust Speed Precip Events Conditions
12:54 AM 44.1 °F 38.1 °F 32.0 °F 63% 30.12 in 10.0 mi NNW 11.5 mph - N/A   Overcast
1:54 AM 43.0 °F 38.2 °F 32.0 °F 65% 30.13 in 10.0 mi NW 8.1 mph - N/A   Mostly Cloudy
2:54 AM 37.0 °F 32.4 °F 30.9 °F 79% 30.13 in 10.0 mi WNW 5.8 mph - N/A   Clear
3:54 AM 37.0 °F 31.0 °F 30.0 °F 76% 30.13 in 10.0 mi NW 8.1 mph - N/A   Clear
4:54 AM 36.0 °F - 28.9 °F 76% 30.13 in 10.0 mi Calm Calm - N/A   Clear
6:54 AM 30.9 °F 27.5 °F 26.1 °F 82% 30.13 in 10.0 mi NW 3.5 mph - N/A   Clear
7:54 AM 30.9 °F 26.2 °F 27.0 °F 85% 30.14 in 10.0 mi WNW 4.6 mph - N/A   Clear
8:54 AM 33.1 °F 30.0 °F 28.0 °F 82% 30.15 in 7.0 mi West 3.5 mph - N/A   Clear
9:54 AM 41.0 °F 39.0 °F 30.0 °F 65% 30.15 in 10.0 mi West 3.5 mph - N/A   Clear
10:54 AM 46.0 °F - 30.0 °F 54% 30.16 in 10.0 mi Calm Calm - N/A   Clear
11:54 AM 50.0 °F - 30.0 °F 46% 30.16 in 10.0 mi West 3.5 mph - N/A   Clear
12:54 PM 54.0 °F - 27.0 °F 35% 30.14 in 10.0 mi Calm Calm - N/A   Clear
2:54 PM 55.0 °F - 21.9 °F 28% 30.11 in 10.0 mi West 10.4 mph - N/A   Mostly Cloudy
3:54 PM 57.0 °F - 21.0 °F 25% 30.09 in 10.0 mi West 15.0 mph 19.6 mph N/A   Mostly Cloudy
4:54 PM 55.0 °F - 21.0 °F 27% 30.09 in 10.0 mi WNW 5.8 mph - N/A   Clear
5:54 PM 53.1 °F - 23.0 °F 31% 30.09 in 10.0 mi West 3.5 mph - N/A   Clear
6:54 PM 46.9 °F - 21.9 °F 37% 30.10 in 4.0 mi SSW 5.8 mph - N/A   Haze
7:54 PM 41.0 °F 38.0 °F 23.0 °F 49% 30.12 in 4.0 mi SSW 4.6 mph - N/A   Haze
8:25 PM 39.2 °F 35.0 °F 21.2 °F 49% 30.11 in 2.5 mi SSW 5.8 mph - N/A   Haze
8:44 PM 39.2 °F 35.9 °F 23.0 °F 52% 30.11 in 3.0 mi SSW 4.6 mph - N/A   Haze
8:54 PM 39.9 °F 36.7 °F 23.0 °F 51% 30.12 in 5.0 mi SSW 4.6 mph - N/A   Haze
9:54 PM 37.9 °F 34.4 °F 21.9 °F 53% 30.12 in 10.0 mi South 4.6 mph - N/A   Clear
10:54 PM 35.1 °F 30.1 °F 21.9 °F 59% 30.13 in 10.0 mi South 5.8 mph - N/A   Clear
11:54 PM 33.1 °F 27.7 °F 21.0 °F 61% 30.14 in 10.0 mi South 5.8 mph - N/A   Clear